Time,TemperatureF,DewpointF,PressureIn,WindDirection,WindDirectionDegrees,WindSpeedMPH,WindSpeedGustMPH,Humidity,HourlyPrecipIn,Conditions,Clouds,dailyrainin,SoftwareType,DateUTC
2013-10-04 06:47:00,46.6,43.8,29.90,ENE,71,3.0,11.0,90,0.00,,,0.00,Wunderground v.1.15,2013-10-04 13:47:00,
2013-10-04 07:01:00,53.8,37.5,29.91,East,80,6.0,11.0,54,0.00,,,0.00,Wunderground v.1.15,2013-10-04 14:01:00,
2013-10-04 07:10:00,60.4,29.6,29.92,NNE,30,8.0,8.0,31,0.00,,,0.00,Wunderground v.1.15,2013-10-04 14:10:00,
2013-10-04 07:20:00,64.6,25.9,29.91,NNE,25,10.0,10.0,23,0.00,,,0.00,Wunderground v.1.15,2013-10-04 14:20:00,
2013-10-04 07:25:00,65.9,24.8,29.92,ENE,59,11.0,12.0,21,0.00,,,0.00,Wunderground v.1.15,2013-10-04 14:25:00,
2013-10-04 07:35:00,67.8,22.7,29.92,NE,40,11.0,11.0,18,0.00,,,0.00,Wunderground v.1.15,2013-10-04 14:35:00,
2013-10-04 07:45:00,68.7,22.1,29.93,ENE,63,12.0,20.0,17,0.00,,,0.00,Wunderground v.1.15,2013-10-04 14:45:00,
2013-10-04 07:55:00,69.2,22.5,29.93,NNW,340,12.0,13.0,17,0.00,,,0.00,Wunderground v.1.15,2013-10-04 14:55:00,
2013-10-04 08:00:00,69.5,21.3,29.93,NE,43,13.0,13.0,16,0.00,,,0.00,Wunderground v.1.15,2013-10-04 15:00:00,
2013-10-04 08:10:00,69.9,21.6,29.94,NE,36,12.0,12.0,16,0.00,,,0.00,Wunderground v.1.15,2013-10-04 15:10:00,
2013-10-04 08:20:00,70.1,20.3,29.95,NNE,12,14.0,22.0,15,0.00,,,0.00,Wunderground v.1.15,2013-10-04 15:20:00,
2013-10-04 08:30:00,70.5,20.6,29.95,NNE,26,12.0,12.0,15,0.00,,,0.00,Wunderground v.1.15,2013-10-04 15:30:00,
2013-10-04 08:35:00,70.8,20.8,29.95,NNE,24,13.0,15.0,15,0.00,,,0.00,Wunderground v.1.15,2013-10-04 15:35:00,
2013-10-04 08:40:00,71.1,21.1,29.95,East,93,13.0,13.0,15,0.00,,,0.00,Wunderground v.1.15,2013-10-04 15:40:00,
2013-10-04 08:45:00,71.5,21.4,29.96,NE,55,13.0,13.0,15,0.00,,,0.00,Wunderground v.1.15,2013-10-04 15:45:00,
2013-10-04 08:50:00,71.9,20.1,29.96,NW,306,14.0,14.0,14,0.00,,,0.00,Wunderground v.1.15,2013-10-04 15:50:00,
2013-10-04 09:00:00,72.6,20.6,29.96,ENE,67,14.0,14.0,14,0.00,,,0.00,Wunderground v.1.15,2013-10-04 16:00:00,
2013-10-04 09:05:00,72.9,20.9,29.96,NNE,23,15.0,15.0,14,0.00,,,0.00,Wunderground v.1.15,2013-10-04 16:05:00,
2013-10-04 09:10:00,73.2,21.1,29.97,North,355,14.0,14.0,14,0.00,,,0.00,Wunderground v.1.15,2013-10-04 16:10:00,
2013-10-04 09:19:00,73.7,19.8,29.97,NE,54,13.0,13.0,13,0.00,,,0.00,Wunderground v.1.15,2013-10-04 16:19:00,
2013-10-04 09:25:00,73.9,19.9,29.97,North,5,14.0,14.0,13,0.00,,,0.00,Wunderground v.1.15,2013-10-04 16:25:00,
2013-10-04 09:30:00,74.1,21.8,29.97,NE,53,14.0,14.0,14,0.00,,,0.00,Wunderground v.1.15,2013-10-04 16:30:00,
2013-10-04 09:35:00,74.3,20.2,29.97,ENE,74,14.0,14.0,13,0.00,,,0.00,Wunderground v.1.15,2013-10-04 16:35:00,
2013-10-04 09:45:00,74.7,22.3,29.98,NE,43,14.0,14.0,14,0.00,,,0.00,Wunderground v.1.15,2013-10-04 16:45:00,
2013-10-04 09:55:00,75.1,20.9,29.98,ENE,59,12.0,14.0,13,0.00,,,0.00,Wunderground v.1.15,2013-10-04 16:55:00,
2013-10-04 10:00:00,75.4,22.8,29.98,ENE,58,12.0,12.0,14,0.00,,,0.00,Wunderground v.1.15,2013-10-04 17:00:00,
2013-10-04 10:10:00,75.9,23.2,29.98,NNE,19,12.0,12.0,14,0.00,,,0.00,Wunderground v.1.15,2013-10-04 17:10:00,
2013-10-04 10:15:00,76.0,21.6,29.98,NNE,25,13.0,13.0,13,0.00,,,0.00,Wunderground v.1.15,2013-10-04 17:15:00,
2013-10-04 10:25:00,76.2,21.7,29.98,NE,47,14.0,19.0,13,0.00,,,0.00,Wunderground v.1.15,2013-10-04 17:25:00,
2013-10-04 10:35:00,76.6,22.0,29.98,NE,56,13.0,24.0,13,0.00,,,0.00,Wunderground v.1.15,2013-10-04 17:35:00,
2013-10-04 11:05:00,78.1,21.3,29.99,North,5,12.0,19.0,12,0.00,,,0.00,Wunderground v.1.15,2013-10-04 18:05:00,
2013-10-04 11:14:00,78.3,21.5,29.99,East,80,13.0,24.0,12,0.00,,,0.00,Wunderground v.1.15,2013-10-04 18:14:00,
2013-10-04 11:20:00,78.4,21.5,29.99,NNE,17,13.0,13.0,12,0.00,,,0.00,Wunderground v.1.15,2013-10-04 18:20:00,
2013-10-04 11:25:00,78.8,21.9,29.99,NNE,32,11.0,13.0,12,0.00,,,0.00,Wunderground v.1.15,2013-10-04 18:25:00,
2013-10-04 11:30:00,78.9,21.9,29.99,NE,55,11.0,11.0,12,0.00,,,0.00,Wunderground v.1.15,2013-10-04 18:30:00,
2013-10-04 11:40:00,79.0,22.0,29.99,NE,41,12.0,12.0,12,0.00,,,0.00,Wunderground v.1.15,2013-10-04 18:40:00,
2013-10-04 11:50:00,79.3,20.2,29.99,NNE,33,13.0,15.0,11,0.00,,,0.00,Wunderground v.1.15,2013-10-04 18:50:00,
2013-10-04 12:00:00,79.9,20.7,29.98,NW,322,11.0,11.0,11,0.00,,,0.00,Wunderground v.1.15,2013-10-04 19:00:00,
2013-10-04 12:10:00,80.4,21.0,29.98,NE,53,12.0,22.0,11,0.00,,,0.00,Wunderground v.1.15,2013-10-04 19:10:00,
2013-10-04 12:15:00,80.1,20.8,29.99,ENE,59,13.0,24.0,11,0.00,,,0.00,Wunderground v.1.15,2013-10-04 19:15:00,
2013-10-04 12:25:00,80.0,18.5,29.99,NE,49,13.0,15.0,10,0.00,,,0.00,Wunderground v.1.15,2013-10-04 19:25:00,
2013-10-04 12:35:00,80.0,18.5,29.99,NNE,17,13.0,17.0,10,0.00,,,0.00,Wunderground v.1.15,2013-10-04 19:35:00,
2013-10-04 12:40:00,80.0,20.7,29.98,ENE,75,14.0,14.0,11,0.00,,,0.00,Wunderground v.1.15,2013-10-04 19:40:00,
2013-10-04 12:45:00,80.0,20.7,29.99,East,96,13.0,20.0,11,0.00,,,0.00,Wunderground v.1.15,2013-10-04 19:45:00,
2013-10-04 12:54:00,80.9,21.4,29.98,NE,55,10.0,14.0,11,0.00,,,0.00,Wunderground v.1.15,2013-10-04 19:54:00,
2013-10-04 13:00:00,81.2,19.4,29.97,NE,49,11.0,11.0,10,0.00,,,0.00,Wunderground v.1.15,2013-10-04 20:00:00,
2013-10-04 13:05:00,81.2,19.4,29.98,ESE,103,13.0,13.0,10,0.00,,,0.00,Wunderground v.1.15,2013-10-04 20:05:00,
2013-10-04 13:10:00,81.1,21.6,29.97,East,90,14.0,15.0,11,0.00,,,0.00,Wunderground v.1.15,2013-10-04 20:10:00,
2013-10-04 13:20:00,81.8,19.9,29.97,North,360,10.0,19.0,10,0.00,,,0.00,Wunderground v.1.15,2013-10-04 20:20:00,
2013-10-04 13:30:00,81.6,19.7,29.97,NNE,19,12.0,12.0,10,0.00,,,0.00,Wunderground v.1.15,2013-10-04 20:30:00,
2013-10-04 13:35:00,81.6,17.3,29.97,NNE,18,12.0,12.0,9,0.00,,,0.00,Wunderground v.1.15,2013-10-04 20:35:00,
2013-10-04 13:40:00,81.7,19.8,29.97,NE,36,11.0,12.0,10,0.00,,,0.00,Wunderground v.1.15,2013-10-04 20:40:00,
2013-10-04 13:50:00,81.9,17.5,29.96,WNW,301,12.0,19.0,9,0.00,,,0.00,Wunderground v.1.15,2013-10-04 20:50:00,
2013-10-04 14:00:00,81.9,14.8,29.96,NE,42,12.0,12.0,8,0.00,,,0.00,Wunderground v.1.15,2013-10-04 21:00:00,
2013-10-04 14:10:00,82.3,15.1,29.95,NNE,18,12.0,12.0,8,0.00,,,0.00,Wunderground v.1.15,2013-10-04 21:10:00,
2013-10-04 14:15:00,82.4,15.1,29.96,NE,47,12.0,12.0,8,0.00,,,0.00,Wunderground v.1.15,2013-10-04 21:15:00,
2013-10-04 14:24:00,82.5,15.2,29.95,ENE,61,12.0,14.0,8,0.00,,,0.00,Wunderground v.1.15,2013-10-04 21:24:00,
2013-10-04 14:29:00,82.6,15.3,29.95,North,5,12.0,12.0,8,0.00,,,0.00,Wunderground v.1.15,2013-10-04 21:29:00,
2013-10-04 14:35:00,82.5,15.2,29.95,ENE,61,12.0,12.0,8,0.00,,,0.00,Wunderground v.1.15,2013-10-04 21:35:00,
2013-10-04 14:45:00,83.0,15.6,29.95,NE,53,11.0,11.0,8,0.00,,,0.00,Wunderground v.1.15,2013-10-04 21:45:00,
2013-10-04 14:50:00,83.4,15.9,29.95,ENE,59,10.0,12.0,8,0.00,,,0.00,Wunderground v.1.15,2013-10-04 21:50:00,
2013-10-04 14:55:00,83.6,13.0,29.94,NE,46,11.0,12.0,7,0.00,,,0.00,Wunderground v.1.15,2013-10-04 21:55:00,
2013-10-04 15:05:00,83.5,16.0,29.94,West,276,12.0,13.0,8,0.00,,,0.00,Wunderground v.1.15,2013-10-04 22:05:00,
2013-10-04 15:10:00,83.2,12.7,29.95,NE,51,13.0,13.0,7,0.00,,,0.00,Wunderground v.1.15,2013-10-04 22:10:00,
2013-10-04 15:15:00,83.1,12.6,29.95,NE,46,12.0,13.0,7,0.00,,,0.00,Wunderground v.1.15,2013-10-04 22:15:00,
2013-10-04 15:24:00,83.1,15.7,29.95,NNE,30,11.0,18.0,8,0.00,,,0.00,Wunderground v.1.15,2013-10-04 22:24:00,
2013-10-04 15:30:00,83.3,15.8,29.94,SE,130,10.0,10.0,8,0.00,,,0.00,Wunderground v.1.15,2013-10-04 22:30:00,
2013-10-04 15:35:00,83.2,15.7,29.94,SE,135,11.0,11.0,8,0.00,,,0.00,Wunderground v.1.15,2013-10-04 22:35:00,
2013-10-04 15:40:00,83.4,18.6,29.94,NNE,24,10.0,11.0,9,0.00,,,0.00,Wunderground v.1.15,2013-10-04 22:40:00,
2013-10-04 15:50:00,83.2,15.7,29.94,NNE,15,11.0,12.0,8,0.00,,,0.00,Wunderground v.1.15,2013-10-04 22:50:00,
2013-10-04 15:55:00,83.1,15.7,29.94,NNE,28,11.0,20.0,8,0.00,,,0.00,Wunderground v.1.15,2013-10-04 22:55:00,
2013-10-04 16:05:00,82.9,12.5,29.94,NE,50,12.0,12.0,7,0.00,,,0.00,Wunderground v.1.15,2013-10-04 23:05:00,
2013-10-04 16:10:00,82.9,12.5,29.94,ENE,71,11.0,11.0,7,0.00,,,0.00,Wunderground v.1.15,2013-10-04 23:10:00,
2013-10-04 16:15:00,82.9,12.5,29.94,NNE,15,11.0,19.0,7,0.00,,,0.00,Wunderground v.1.15,2013-10-04 23:15:00,
2013-10-04 16:20:00,82.7,12.3,29.95,NNE,20,12.0,12.0,7,0.00,,,0.00,Wunderground v.1.15,2013-10-04 23:20:00,
2013-10-04 16:30:00,82.6,12.2,29.95,NNE,30,10.0,10.0,7,0.00,,,0.00,Wunderground v.1.15,2013-10-04 23:30:00,
2013-10-04 16:35:00,82.4,12.1,29.95,NNE,16,11.0,14.0,7,0.00,,,0.00,Wunderground v.1.15,2013-10-04 23:35:00,
2013-10-04 16:45:00,82.1,14.9,29.95,NE,53,11.0,11.0,8,0.00,,,0.00,Wunderground v.1.15,2013-10-04 23:45:00,
2013-10-04 16:50:00,82.0,11.8,29.95,ENE,57,11.0,11.0,7,0.00,,,0.00,Wunderground v.1.15,2013-10-04 23:50:00,
2013-10-04 17:00:00,81.6,11.5,29.95,NNE,16,11.0,11.0,7,0.00,,,0.00,Wunderground v.1.15,2013-10-05 00:00:00,
2013-10-04 17:05:00,81.3,11.3,29.95,ENE,61,10.0,19.0,7,0.00,,,0.00,Wunderground v.1.15,2013-10-05 00:05:00,
2013-10-04 17:10:00,81.0,11.1,29.95,NE,44,10.0,13.0,7,0.00,,,0.00,Wunderground v.1.15,2013-10-05 00:10:00,
2013-10-04 17:20:00,80.4,10.6,29.95,NE,34,11.0,11.0,7,0.00,,,0.00,Wunderground v.1.15,2013-10-05 00:20:00,
2013-10-04 17:25:00,80.2,13.5,29.95,East,88,11.0,16.0,8,0.00,,,0.00,Wunderground v.1.15,2013-10-05 00:25:00,
2013-10-04 17:35:00,79.6,13.1,29.95,NE,35,9.0,11.0,8,0.00,,,0.00,Wunderground v.1.15,2013-10-05 00:35:00,
2013-10-04 17:40:00,79.3,9.8,29.96,ENE,71,9.0,9.0,7,0.00,,,0.00,Wunderground v.1.15,2013-10-05 00:40:00,
2013-10-04 17:45:00,79.1,12.7,29.96,ENE,74,9.0,11.0,8,0.00,,,0.00,Wunderground v.1.15,2013-10-05 00:45:00,
2013-10-04 17:55:00,78.5,12.2,29.96,NNE,25,8.0,14.0,8,0.00,,,0.00,Wunderground v.1.15,2013-10-05 00:55:00,
2013-10-04 18:05:00,77.9,11.8,29.96,ENE,65,9.0,11.0,8,0.00,,,0.00,Wunderground v.1.15,2013-10-05 01:05:00,
2013-10-04 18:15:00,77.4,11.4,29.97,NE,47,10.0,11.0,8,0.00,,,0.00,Wunderground v.1.15,2013-10-05 01:15:00,
2013-10-04 18:25:00,77.0,11.1,29.97,ENE,65,10.0,11.0,8,0.00,,,0.00,Wunderground v.1.15,2013-10-05 01:25:00,
2013-10-04 18:30:00,76.7,10.9,29.97,NE,44,9.0,14.0,8,0.00,,,0.00,Wunderground v.1.15,2013-10-05 01:30:00,
2013-10-04 18:35:00,76.5,10.7,29.98,NNE,32,10.0,14.0,8,0.00,,,0.00,Wunderground v.1.15,2013-10-05 01:35:00,
2013-10-04 18:45:00,76.4,10.7,29.98,NE,46,10.0,11.0,8,0.00,,,0.00,Wunderground v.1.15,2013-10-05 01:45:00,
2013-10-04 18:50:00,76.3,13.3,29.98,NNE,23,10.0,10.0,9,0.00,,,0.00,Wunderground v.1.15,2013-10-05 01:50:00,
2013-10-04 19:00:00,76.0,13.0,29.99,NE,53,9.0,9.0,9,0.00,,,0.00,Wunderground v.1.15,2013-10-05 02:00:00,
2013-10-04 19:10:00,75.5,12.7,29.99,NNE,16,8.0,8.0,9,0.00,,,0.00,Wunderground v.1.15,2013-10-05 02:10:00,
2013-10-04 19:15:00,75.3,12.5,29.99,NNE,33,8.0,10.0,9,0.00,,,0.00,Wunderground v.1.15,2013-10-05 02:15:00,
2013-10-04 19:20:00,75.1,12.4,29.99,ENE,63,7.0,11.0,9,0.00,,,0.00,Wunderground v.1.15,2013-10-05 02:20:00,
2013-10-04 19:29:00,75.3,12.5,29.99,NNE,13,8.0,8.0,9,0.00,,,0.00,Wunderground v.1.15,2013-10-05 02:29:00,
2013-10-04 19:35:00,75.0,12.3,29.99,NE,39,7.0,17.0,9,0.00,,,0.00,Wunderground v.1.15,2013-10-05 02:35:00,
2013-10-04 19:40:00,75.0,12.3,30.00,NE,40,9.0,15.0,9,0.00,,,0.00,Wunderground v.1.15,2013-10-05 02:40:00,
2013-10-04 19:50:00,75.3,12.5,30.00,NNE,30,10.0,13.0,9,0.00,,,0.00,Wunderground v.1.15,2013-10-05 02:50:00,
2013-10-04 19:55:00,75.5,12.7,30.00,North,355,11.0,13.0,9,0.00,,,0.00,Wunderground v.1.15,2013-10-05 02:55:00,
2013-10-04 20:05:00,75.4,12.6,30.00,NE,53,11.0,13.0,9,0.00,,,0.00,Wunderground v.1.15,2013-10-05 03:05:00,
2013-10-04 20:10:00,75.2,12.4,30.01,NNE,22,10.0,10.0,9,0.00,,,0.00,Wunderground v.1.15,2013-10-05 03:10:00,
2013-10-04 20:20:00,75.0,14.7,30.01,NE,53,9.0,17.0,10,0.00,,,0.00,Wunderground v.1.15,2013-10-05 03:20:00,
2013-10-04 20:30:00,74.7,14.5,30.01,NE,40,8.0,11.0,10,0.00,,,0.00,Wunderground v.1.15,2013-10-05 03:30:00,
2013-10-04 20:35:00,74.7,14.5,30.01,NNE,15,9.0,12.0,10,0.00,,,0.00,Wunderground v.1.15,2013-10-05 03:35:00,
2013-10-04 20:40:00,75.0,14.7,30.01,NNE,12,11.0,11.0,10,0.00,,,0.00,Wunderground v.1.15,2013-10-05 03:40:00,
2013-10-04 20:50:00,74.6,14.4,30.01,North,5,7.0,13.0,10,0.00,,,0.00,Wunderground v.1.15,2013-10-05 03:50:00,
2013-10-04 20:55:00,74.5,14.3,30.02,NNE,20,9.0,13.0,10,0.00,,,0.00,Wunderground v.1.15,2013-10-05 03:55:00,
2013-10-04 21:04:00,74.7,14.5,30.02,East,83,10.0,14.0,10,0.00,,,0.00,Wunderground v.1.15,2013-10-05 04:04:00,
2013-10-04 21:09:00,74.7,14.5,30.02,North,355,10.0,10.0,10,0.00,,,0.00,Wunderground v.1.15,2013-10-05 04:09:00,
2013-10-04 21:15:00,74.5,16.5,30.02,NE,55,8.0,15.0,11,0.00,,,0.00,Wunderground v.1.15,2013-10-05 04:15:00,
2013-10-04 21:20:00,74.3,16.3,30.02,NE,46,7.0,11.0,11,0.00,,,0.00,Wunderground v.1.15,2013-10-05 04:20:00,
2013-10-04 21:25:00,74.2,16.3,30.03,NE,43,8.0,11.0,11,0.00,,,0.00,Wunderground v.1.15,2013-10-05 04:25:00,
2013-10-04 21:30:00,74.0,16.1,30.03,ENE,59,7.0,11.0,11,0.00,,,0.00,Wunderground v.1.15,2013-10-05 04:30:00,
2013-10-04 21:35:00,73.8,18.0,30.03,NE,36,7.0,11.0,12,0.00,,,0.00,Wunderground v.1.15,2013-10-05 04:35:00,
2013-10-04 21:40:00,73.7,15.9,30.02,NNE,31,8.0,8.0,11,0.00,,,0.00,Wunderground v.1.15,2013-10-05 04:40:00,
2013-10-04 21:50:00,74.2,16.3,30.02,NE,44,11.0,11.0,11,0.00,,,0.00,Wunderground v.1.15,2013-10-05 04:50:00,
2013-10-04 21:55:00,74.2,16.3,30.03,NNE,30,12.0,12.0,11,0.00,,,0.00,Wunderground v.1.15,2013-10-05 04:55:00,
2013-10-04 22:05:00,74.5,16.5,30.02,ENE,59,12.0,19.0,11,0.00,,,0.00,Wunderground v.1.15,2013-10-05 05:05:00,
2013-10-04 22:15:00,74.4,16.4,30.02,NNE,31,10.0,16.0,11,0.00,,,0.00,Wunderground v.1.15,2013-10-05 05:15:00,
2013-10-04 22:25:00,74.5,16.5,30.02,ENE,77,12.0,15.0,11,0.00,,,0.00,Wunderground v.1.15,2013-10-05 05:25:00,
2013-10-04 22:35:00,74.5,16.5,30.03,North,360,11.0,12.0,11,0.00,,,0.00,Wunderground v.1.15,2013-10-05 05:35:00,
2013-10-04 22:40:00,74.3,18.4,30.02,North,355,9.0,11.0,12,0.00,,,0.00,Wunderground v.1.15,2013-10-05 05:40:00,
2013-10-04 22:49:00,74.2,16.3,30.03,NE,53,10.0,14.0,11,0.00,,,0.00,Wunderground v.1.15,2013-10-05 05:49:00,
2013-10-04 22:55:00,74.3,16.3,30.02,NE,44,10.0,14.0,11,0.00,,,0.00,Wunderground v.1.15,2013-10-05 05:55:00,
2013-10-04 23:00:00,74.4,16.4,30.02,NNE,22,10.0,16.0,11,0.00,,,0.00,Wunderground v.1.15,2013-10-05 06:00:00,
2013-10-04 23:10:00,74.4,16.4,30.02,ENE,63,10.0,10.0,11,0.00,,,0.00,Wunderground v.1.15,2013-10-05 06:10:00,
2013-10-04 23:20:00,74.3,16.3,30.03,NE,35,9.0,9.0,11,0.00,,,0.00,Wunderground v.1.15,2013-10-05 06:20:00,
2013-10-04 23:25:00,74.3,16.3,30.03,North,5,9.0,11.0,11,0.00,,,0.00,Wunderground v.1.15,2013-10-05 06:25:00,
2013-10-04 23:30:00,74.2,16.3,30.03,East,82,9.0,13.0,11,0.00,,,0.00,Wunderground v.1.15,2013-10-05 06:30:00,
2013-10-04 23:39:00,74.6,16.6,30.03,NE,55,11.0,11.0,11,0.00,,,0.00,Wunderground v.1.15,2013-10-05 06:39:00,
2013-10-04 23:45:00,74.7,16.6,30.03,ENE,78,10.0,11.0,11,0.00,,,0.00,Wunderground v.1.15,2013-10-05 06:45:00,
2013-10-04 23:55:00,74.7,16.6,30.03,NE,47,9.0,11.0,11,0.00,,,0.00,Wunderground v.1.15,2013-10-05 06:55:00,